Regional Weather Roundup
Issued by NWS Midland/Odessa, TX

Skip options and go directly to product.
Home | Oldest Version | Previous Version | Current Version | All | Graphics & Text | Save Text | Print | Product List | Glossary On

Skip product version selection by date and time.   
344
ASUS44 KMAF 040410
RWRMAF
MIDLAND AREA WEATHER ROUNDUP
NATIONAL WEATHER SERVICE MIDLAND TX
1000 PM CST TUE MAR 03 2015

...IN SOUTHWEST TEXAS AND SOUTHEAST NEW MEXICO...

CITY           SKY/WX    TMP DP  RH WIND       PRES   REMARKS
ALPINE         CLOUDY    52  45  76 CALM      29.97S
ANDREWS        DRIZZLE   52  48  87 CALM      29.88R
ARTESIA        MOCLDY    48  45  87 SW8       29.85S
BIG SPRING     CLOUDY    54  50  87 SE6       29.90R
CARLSBAD       CLOUDY    55  44  66 S7        29.84S
DRYDEN           N/A     55  49  80 E3        29.86R
FORT STOCKTON  LGT RAIN  55  48  77 W8        29.86S
GUAD PASS      NOT AVBL
HOBBS          CLOUDY    54  50  87 CALM      29.88R
MARFA          CLOUDY    54  45  71 NE7       29.93S
MIDLAND AIRPK  CLOUDY    55  47  77 CALM      29.87F
MIDLAND INTL   CLOUDY    51  47  86 CALM      29.86R
ODESSA         CLOUDY    51  46  83 E3        29.86S
PECOS          CLOUDY    54  47  78 E3        29.85F
PRESIDIO       FAIR      68  44  41 N3        29.81R
SEMINOLE       CLOUDY    50  46  84 SW5       29.88R
SNYDER         CLOUDY    51  47  86 CALM      29.86F
WINK           LGT RAIN  57  46  66 SE7       29.85R
$$
...OTHER STATIONS IN TEXAS...

CITY           SKY/WX    TMP DP  RH WIND       PRES   REMARKS
ABILENE        CLOUDY    53  48  83 CALM      29.85R
AMARILLO       PTCLDY    44  38  79 E12       29.84R WCI  38
AUSTIN         CLOUDY    57  57 100 CALM      29.88R FOG
BROWNSVILLE    CLOUDY    70  69  97 SE18      29.84R
CORPUS CHRISTI FOG       68  67  96 SE22G30   29.83S VSB 1/2
DALLAS FTW     CLOUDY    51  51 100 CALM      29.87S
DEL RIO        CLOUDY    57  52  83 E5        29.84R
EL PASO        CLOUDY    54  45  71 S12       29.86F
HOUSTON INT    MOCLDY    69  66  90 S12       29.89F
LUBBOCK        CLOUDY    52  42  69 S8        29.84S
SAN ANGELO     CLOUDY    56  50  80 CALM      29.86R
SAN ANTONIO    DRZL/FOG  59  57  93 N3        29.88S VSB 1/2
WACO           FOG       50  50 100 SE5       29.86F VSB 1/4
WICHITA FALLS  NOT AVBL
$$
...OTHER LOCATIONS IN NEW MEXICO...

CITY           SKY/WX    TMP DP  RH WIND       PRES   REMARKS
ALAMAGORDO     PTCLDY    50  41  71 SE14G20   29.87R
ALBUQUERQUE    PTCLDY    46  19  34 NW10      29.85R
CANNON AFB     CLOUDY    49  43  78 S12       29.81R
CLOVIS         CLOUDY    45  39  81 S9        29.82R WCI  40
HOLLOMAN AFB   PTCLDY    50  42  76 SW8       29.85R
ROSWELL        MOCLDY    52  43  71 S15       29.82S
RUIDOSO        PTCLDY    41  32  70 SW20G25   29.88S WCI  32
SANTA FE       CLEAR     33  22  63 NW9       29.83R WCI  25
TRUTH OR CONSE CLEAR     46  24  42 SW5       29.84R
TUCUMCARI      MOCLDY    50  42  74 CALM      29.79R
$$

USA.gov is the U.S. government's official web portal to all federal, state and local government web resources and services.